Wind_Speed
15 16 16 15 15 15 13 12 13 13 13 12 11 11 11 11 11 10 11 11 11 10 10 10 11 10 10 10 10 10 10 10 10 10 11 11 10 10 11 12 12 13 12 12 12 11 11 11 11 11 12 13 13 13 13 13 13 14 14 14 14 14 14 14 14 14 14 14 14 14 14 15 15 15 14 14 13 13 12 12 11 11 11 10 9
16 17 16 16 16 15 14 12 12 12 13 12 12 11 11 11 11 10 10 10 11 10 10 10 10 10 10 10 10 10 10 10 10 10 11 12 12 11 12 13 14 14 14 13 13 13 12 13 14 14 14 15 15 14 14 14 13 13 14 14 14 14 14 14 13 13 13 13 13 14 14 14 15 14 14 13 12 12 11 11 10 11 11 10 9
16 17 16 16 15 15 14 13 12 12 12 11 11 11 11 10 10 11 10 10 10 10 10 10 10 10 10 10 10 11 11 10 10 11 12 12 12 12 13 13 14 15 14 14 14 14 14 14 15 14 14 14 15 14 14 14 14 14 14 14 14 14 14 13 13 12 12 12 13 13 13 13 14 13 13 12 11 11 10 10 10 10 10 9 8
16 17 17 16 14 15 14 13 12 11 11 10 11 11 11 10 10 10 10 9 9 10 10 10 10 11 11 10 11 11 11 10 10 12 12 12 12 12 12 13 13 14 14 15 16 15 15 15 15 15 14 15 15 14 15 15 15 14 14 14 14 14 13 13 12 12 11 12 12 12 12 12 13 12 12 11 10 9 9 9 8 8 8 7 7
17 17 16 15 15 15 13 12 12 11 10 10 10 10 9 9 11 11 10 10 10 10 10 10 11 11 11 11 11 11 11 11 11 12 12 12 11 11 12 12 12 13 14 14 16 16 15 16 16 15 15 15 16 15 15 16 15 14 14 14 14 14 14 13 12 11 11 11 11 10 10 11 11 11 10 9 8 8 7 7 7 7 7 6 6
16 16 15 14 15 14 13 11 11 10 9 9 9 9 9 8 10 11 10 10 11 11 10 10 10 11 11 11 11 11 11 11 11 12 13 12 11 11 12 12 11 12 13 14 15 16 15 16 16 16 16 15 15 15 16 16 16 14 13 13 13 14 13 12 11 11 11 10 9 9 9 9 9 10 9 8 7 7 6 7 7 6 6 6 6
15 15 14 14 14 13 12 11 10 9 8 8 9 9 9 8 9 11 10 10 11 10 11 10 10 11 10 11 11 11 11 11 11 12 13 13 12 11 12 12 11 11 13 14 14 15 15 15 16 16 16 15 15 15 15 15 14 13 12 11 11 12 12 11 10 11 10 9 9 8 8 8 7 7 7 7 6 6 5 5 5 5 5 4 4
15 14 13 13 12 12 11 10 10 9 8 8 9 9 9 9 9 10 10 10 11 10 11 11 11 11 10 10 10 10 10 10 11 13 13 14 14 12 12 12 11 11 12 14 14 15 14 15 16 16 16 15 14 13 13 13 12 12 11 11 11 11 10 10 9 9 9 8 8 7 6 5 5 5 5 5 4 4 4 4 3 4 3 3 3
15 13 13 12 11 10 10 10 9 8 8 8 9 9 9 10 9 9 11 10 10 11 11 12 11 10 10 10 10 10 10 10 11 13 13 13 16 14 13 13 12 12 12 14 14 14 14 14 15 15 15 14 13 12 12 12 11 11 11 12 12 11 11 10 10 8 8 7 7 7 6 5 4 4 4 3 3 3 3 2 2 2 2 2 2
14 13 12 11 11 10 9 9 8 8 8 8 9 9 9 11 10 9 10 10 10 11 11 12 11 10 10 10 9 10 10 10 10 11 11 11 16 16 14 14 13 12 12 14 14 14 14 14 15 15 14 13 12 12 12 12 12 12 12 11 11 11 12 12 11 10 9 8 8 7 7 6 5 4 3 3 2 2 2 1 1 1 1 0 1
14 13 12 11 10 10 10 9 8 8 7 8 8 9 9 11 11 9 10 10 11 11 11 12 12 11 10 9 9 10 10 11 10 10 10 10 14 15 14 14 15 14 13 13 14 14 13 14 14 14 13 13 12 11 11 11 11 11 11 12 12 13 13 14 13 12 11 10 9 8 7 7 6 5 4 4 3 2 2 1 1 1 0 0 0
14 12 12 11 10 10 10 9 8 8 7 7 7 9 9 10 11 11 11 10 11 12 13 12 12 11 10 9 8 9 10 11 11 10 10 10 12 14 14 13 15 17 16 14 13 13 13 14 14 13 12 11 11 10 11 10 11 11 12 13 14 14 14 14 14 13 13 12 10 9 8 6 5 5 5 4 4 3 3 3 2 2 2 1 1
13 12 11 11 11 10 10 9 9 8 7 7 7 8 9 10 10 12 13 11 11 12 13 13 12 11 10 9 8 9 10 12 12 11 11 10 11 12 12 13 14 16 17 16 14 13 14 14 14 12 11 11 10 10 10 10 12 12 13 13 13 13 13 13 13 13 13 12 12 10 9 6 5 4 4 3 3 2 2 2 2 1 1 1 1
11 11 11 11 11 10 10 10 10 9 8 7 8 8 9 10 10 11 13 12 12 13 13 13 13 11 10 9 8 9 9 11 11 11 11 11 11 13 13 12 12 13 14 15 14 13 13 14 13 11 11 11 11 9 9 11 12 13 13 12 12 12 11 12 12 12 12 12 12 11 9 7 5 4 2 1 1 1 1 1 1 1 1 1 1
10 10 11 11 11 10 10 10 10 9 8 7 7 7 8 9 9 11 12 12 12 13 13 13 13 12 10 8 8 9 9 10 11 11 12 12 11 13 14 12 10 10 12 12 13 13 13 13 12 11 11 11 10 9 9 10 11 12 12 11 10 10 11 11 12 12 12 12 11 11 9 7 4 3 2 1 1 0 1 1 1 2 2 2 2
10 10 11 11 11 12 11 10 10 9 8 8 7 7 8 8 9 10 12 12 12 13 13 13 13 12 10 7 7 8 8 9 10 11 11 12 12 12 13 12 11 11 12 13 13 13 13 12 11 11 11 11 10 9 9 9 9 10 10 9 9 10 10 11 12 12 13 12 12 11 9 7 5 4 2 2 2 1 1 1 1 1 1 1 1
10 10 11 11 12 12 11 11 10 10 10 9 9 7 7 8 8 10 12 12 11 12 13 13 12 12 10 7 7 7 8 8 10 11 11 12 12 12 12 12 12 12 13 14 13 13 12 12 11 11 11 11 10 9 9 9 9 9 8 8 9 9 10 11 12 12 13 12 12 10 9 7 6 4 3 3 2 2 1 0 0 0 0 0 1
10 10 10 11 12 13 12 11 10 10 9 9 9 8 8 8 8 9 11 11 11 11 13 13 13 11 9 8 8 8 8 8 9 10 11 11 12 12 12 12 13 13 13 13 13 12 12 11 11 11 11 11 10 10 9 8 8 8 8 8 9 9 10 11 11 11 12 11 11 10 8 7 5 4 3 2 2 2 2 1 2 2 2 2 2
10 10 10 11 11 12 12 10 10 9 9 8 8 8 9 9 8 8 10 11 12 12 13 13 13 12 9 9 9 9 9 9 10 10 11 11 11 11 11 12 12 13 13 13 13 12 12 12 12 12 11 11 10 10 9 8 7 7 7 7 8 8 9 9 10 10 10 10 9 9 7 5 4 3 2 2 3 3 3 3 4 4 4 4 4
10 10 10 11 11 11 11 9 9 8 8 8 8 8 9 9 9 9 9 11 12 12 13 13 13 12 10 10 10 10 11 10 11 10 10 10 10 10 11 11 12 13 14 14 14 13 13 13 13 12 11 11 10 9 8 7 6 6 6 5 5 7 7 7 8 8 8 8 8 7 6 4 4 3 2 3 4 5 5 5 6 6 6 7 8
10 11 11 10 10 9 9 9 9 8 8 8 9 10 10 11 10 10 10 11 12 12 13 13 13 13 11 10 10 11 11 11 11 10 10 10 10 10 11 13 13 14 14 14 14 14 14 13 13 12 11 10 9 9 7 6 5 4 3 3 4 6 6 7 7 6 6 6 7 7 6 5 5 4 5 6 6 7 8 8 8 8 8 9 9
11 11 11 10 10 9 8 8 9 8 8 8 9 10 10 10 10 11 11 11 11 11 12 13 13 13 11 10 10 10 11 11 11 10 10 10 11 12 14 15 16 16 16 15 15 15 14 13 13 12 11 9 8 7 6 5 3 2 1 2 4 5 6 6 5 5 4 5 6 7 6 6 6 6 8 9 9 10 10 9 9 9 10 9 8
12 12 11 10 9 9 8 8 9 8 9 9 10 10 9 10 11 11 11 11 11 11 12 12 12 12 11 10 10 11 11 11 11 10 10 11 13 15 17 17 17 17 16 15 15 14 13 12 11 10 9 7 6 5 5 4 3 2 1 2 4 5 6 6 4 3 4 5 7 7 7 7 7 8 10 11 12 12 12 12 11 11 11 10 10
13 12 11 10 9 9 8 8 9 9 10 11 11 11 11 11 12 12 10 10 10 10 11 11 12 11 11 11 11 12 12 12 12 11 13 14 16 17 17 17 16 16 15 14 13 11 10 9 8 7 6 5 5 4 4 3 3 3 2 2 4 4 5 5 3 4 5 7 8 9 8 9 9 10 12 12 13 14 14 13 12 12 12 11 11
11 11 11 11 10 10 8 8 8 9 9 11 12 12 12 12 13 13 11 10 10 10 10 11 11 11 12 12 12 13 12 12 12 13 16 17 18 18 17 16 15 14 13 11 10 9 8 7 6 5 4 4 4 4 5 4 4 3 2 2 3 3 4 4 3 5 7 9 10 10 10 10 11 11 12 13 13 14 14 13 13 13 12 12 11
9 10 11 11 11 11 10 9 9 9 8 9 12 12 13 13 13 12 11 10 10 9 10 10 10 12 13 13 12 13 12 13 14 16 18 18 18 17 15 14 12 11 10 9 8 7 6 5 5 4 4 5 6 6 6 5 4 2 1 1 2 2 3 3 4 7 9 11 12 12 11 11 11 12 12 13 13 14 14 13 12 12 11 11 10
9 10 11 11 11 11 12 11 10 10 10 11 12 12 12 12 12 11 10 10 10 9 9 9 10 12 14 13 13 13 13 14 16 18 18 17 16 15 13 11 10 9 8 8 7 6 5 4 3 3 4 5 5 6 5 4 3 1 0 0 0 1 3 5 6 9 11 12 12 11 11 11 11 12 12 12 13 13 12 12 11 10 10 9 8
8 10 10 10 11 12 12 12 12 12 12 13 13 12 12 12 11 10 10 10 10 10 10 10 11 13 14 14 13 14 14 15 17 18 17 16 14 13 11 9 8 8 7 7 6 5 4 3 2 1 2 3 3 4 4 3 3 2 1 1 2 4 6 7 9 10 11 11 11 10 10 10 10 11 11 11 11 11 10 10 9 9 8 7 7
8 10 10 9 10 11 12 12 12 12 13 14 13 12 12 13 12 11 11 11 11 11 11 12 13 14 14 14 14 14 15 16 17 17 16 15 13 11 9 8 8 7 7 6 5 4 3 2 1 1 1 1 1 2 3 3 4 3 3 4 5 7 8 10 11 11 11 11 10 10 10 10 10 10 10 10 10 9 8 8 7 7 7 7 6
8 10 9 10 11 12 13 12 12 13 12 13 13 13 13 14 13 12 12 11 11 11 12 13 14 14 14 14 15 14 15 16 17 17 16 14 12 10 9 8 7 6 6 5 5 4 3 2 2 2 2 2 3 2 1 4 5 6 6 7 8 10 11 11 11 11 11 10 10 10 10 10 9 9 9 9 8 8 7 7 7 6 6 6 6
9 9 10 11 12 13 13 13 13 13 13 13 14 14 15 15 15 14 13 11 12 13 14 15 15 15 14 15 14 14 16 17 17 17 16 13 11 9 8 7 6 5 5 5 4 3 3 2 2 3 3 4 4 4 3 6 8 9 9 10 11 12 11 10 10 9 9 9 10 10 10 9 9 8 7 7 7 7 7 7 7 7 7 7 7
9 9 10 12 12 13 13 13 13 13 14 14 16 17 17 16 16 15 14 13 14 16 17 17 16 15 14 14 14 15 16 17 17 17 15 12 10 9 8 7 6 5 4 4 3 2 2 2 2 3 4 5 5 3 3 8 11 11 11 11 12 11 9 8 8 8 8 8 9 9 9 9 8 7 6 6 6 6 6 6 6 7 7 7 7
9 10 11 12 13 13 13 13 13 14 15 17 18 18 18 17 16 16 16 17 17 18 17 16 15 14 13 13 14 15 16 17 17 15 13 11 10 9 8 7 6 5 4 3 2 2 1 1 3 4 5 5 5 2 3 7 9 10 10 10 9 8 7 7 7 6 6 7 7 7 7 7 7 6 6 5 5 5 6 6 7 7 7 8 8
9 11 12 12 13 13 13 13 14 15 17 19 19 19 18 18 17 18 18 18 18 17 15 14 14 13 12 12 14 15 16 16 15 14 12 11 10 9 8 7 6 5 4 3 2 2 1 1 3 5 5 5 4 1 3 6 7 8 9 8 7 6 6 6 6 6 5 5 5 6 5 6 6 6 7 6 6 6 7 7 8 9 10 10 9
10 11 12 13 13 13 13 15 16 17 19 20 19 19 18 18 18 18 18 17 16 14 13 13 12 12 11 11 12 14 15 14 13 12 12 11 10 9 8 7 5 4 3 2 2 2 1 2 4 5 6 6 4 1 3 5 6 6 6 6 5 5 5 4 4 4 4 4 5 6 6 7 7 8 9 8 8 8 8 8 9 10 11 11 11
10 11 12 13 13 13 14 17 19 20 20 20 19 19 18 18 18 18 17 15 13 12 12 11 11 10 10 10 10 12 13 13 12 12 11 10 9 8 7 5 4 2 2 2 2 2 1 3 3 4 5 6 3 1 3 4 4 4 3 3 3 3 3 2 3 3 4 4 6 7 7 8 9 10 10 9 9 9 10 10 10 11 12 12 11
10 11 13 14 14 15 16 18 21 21 21 19 19 19 18 18 18 17 16 14 12 11 11 11 10 10 9 10 10 11 12 12 12 12 10 9 8 7 6 4 3 2 2 2 2 1 2 3 2 3 5 6 3 2 3 3 3 2 1 0 1 1 2 3 3 4 4 5 6 8 8 9 10 10 10 10 10 10 11 11 11 12 12 12 12
11 12 12 14 15 16 18 20 22 22 21 20 20 19 19 19 17 16 14 12 11 11 11 10 9 9 8 9 9 10 12 12 11 11 10 9 7 6 6 5 3 3 2 2 2 1 1 2 2 2 4 5 2 3 3 3 3 3 2 2 2 2 2 2 4 5 5 5 7 8 9 9 10 11 11 12 12 12 11 10 11 11 11 11 12
12 13 13 14 15 17 19 21 22 21 20 20 20 20 20 19 17 15 14 12 11 10 10 9 9 8 8 9 9 9 10 10 10 10 10 9 7 6 6 5 4 3 2 2 2 1 2 2 3 2 3 3 2 2 2 3 4 4 4 4 3 3 3 3 5 6 5 6 8 10 10 10 10 12 12 13 12 11 10 10 10 10 10 11 12
13 13 14 15 17 18 20 21 21 21 20 21 21 21 21 19 17 15 14 13 11 10 9 8 8 8 8 8 8 7 7 8 9 10 10 9 7 7 7 5 3 2 2 2 2 2 3 3 3 3 3 2 2 2 3 4 4 5 6 5 4 4 4 5 5 6 6 7 9 10 11 11 12 13 13 13 12 11 11 12 12 11 11 12 13
14 15 15 17 18 19 21 21 21 20 21 22 22 21 21 20 18 17 15 13 11 10 9 8 8 8 7 7 5 5 6 7 9 10 10 9 7 7 7 5 3 2 3 3 3 3 4 4 4 3 3 3 2 2 3 3 5 6 7 6 5 5 6 6 6 6 7 8 10 10 11 11 12 13 12 12 12 12 12 13 13 12 13 14 14
15 16 16 17 19 20 21 21 21 21 21 22 21 21 20 19 17 16 14 12 11 9 8 7 7 6 6 5 5 5 6 7 9 10 10 9 8 8 7 6 4 4 4 4 4 5 5 4 4 4 4 5 4 4 3 4 5 6 7 8 7 7 7 7 8 8 9 9 10 10 10 10 11 11 11 11 12 12 12 12 13 13 14 15 13
16 17 17 17 19 21 22 22 22 22 21 21 22 21 19 17 15 14 12 11 10 9 8 6 5 5 4 4 5 6 7 8 9 10 11 9 8 8 8 7 5 5 5 5 5 6 6 5 4 4 5 5 5 5 5 5 5 5 6 7 8 8 8 8 8 8 9 10 10 10 9 9 10 10 11 12 13 13 12 13 14 14 14 13 11
17 18 18 18 19 20 22 22 22 22 21 21 21 20 18 16 15 13 12 10 9 9 8 7 5 4 4 5 5 7 9 9 10 11 11 9 9 9 9 8 7 6 5 6 6 6 6 5 5 4 5 5 5 5 5 5 5 5 5 6 7 8 7 7 8 8 8 9 9 8 9 9 10 11 12 12 13 13 13 13 14 13 11 9 8
18 19 20 20 19 20 22 22 22 22 21 21 21 20 19 17 16 15 13 12 11 10 10 9 7 6 6 6 6 8 10 11 11 10 10 9 9 9 10 9 8 7 7 7 6 7 7 6 5 4 4 5 5 5 5 6 6 6 6 5 5 5 4 6 9 7 6 7 7 7 7 9 10 11 12 12 12 14 14 13 13 11 8 7 7
17 19 21 20 19 20 21 22 22 22 21 21 22 21 20 19 17 16 15 14 13 12 11 9 7 6 6 6 7 9 11 12 12 11 10 9 9 9 9 9 9 8 9 9 8 8 8 7 6 5 5 6 6 6 5 6 6 6 6 5 4 4 5 7 8 8 9 7 5 6 8 9 10 11 12 11 12 14 15 14 11 9 8 7 6
17 18 21 21 20 20 21 22 22 22 21 22 23 22 20 19 18 16 15 14 12 11 10 9 7 5 6 7 9 10 11 12 13 12 11 10 10 10 10 10 10 10 10 10 9 9 9 9 8 7 6 6 6 6 6 6 6 6 5 5 5 5 5 6 8 10 13 11 7 7 8 9 10 10 11 12 14 15 15 14 10 7 8 7 6
18 18 21 21 20 20 21 22 22 22 22 22 23 22 21 20 18 16 14 13 11 9 8 8 8 7 7 8 10 11 11 12 13 13 12 12 11 11 11 11 11 11 10 10 10 10 10 10 9 8 7 7 7 6 6 6 6 6 6 5 5 5 6 7 8 9 12 14 13 11 10 11 9 9 10 12 14 15 14 13 9 7 7 7 6
20 19 19 21 21 19 19 21 23 23 23 23 23 23 22 21 18 16 14 13 12 10 9 9 9 9 9 10 11 11 12 12 12 12 12 13 12 12 12 11 11 11 11 11 10 10 10 10 10 9 8 7 7 7 7 7 7 7 7 7 7 7 7 7 7 8 10 12 15 15 15 16 13 10 11 12 13 13 13 12 10 8 7 6 7
22 20 19 20 22 20 19 20 23 23 24 23 23 23 22 21 19 16 15 14 13 12 11 11 11 10 10 11 12 12 12 11 11 11 12 12 12 12 11 11 11 11 12 12 11 10 10 10 10 9 8 8 8 8 8 8 8 8 8 8 8 9 9 7 7 8 10 11 14 17 17 18 18 15 14 14 12 12 12 12 10 8 7 7 8
24 22 21 22 22 22 20 19 21 22 23 23 23 22 22 21 19 18 17 16 15 14 14 13 12 12 11 12 12 12 12 11 11 11 12 12 11 11 11 11 11 12 12 12 11 11 10 10 10 10 10 9 9 9 8 8 8 8 8 8 8 8 8 8 8 9 10 12 15 17 17 17 19 19 17 16 13 12 12 12 10 8 7 8 9
Wind_Direction
154 149 150 151 147 141 139 138 134 134 134 140 142 137 136 134 135 129 126 129 128 128 129 127 125 123 122 121 120 119 118 115 110 106 105 107 108 107 108 110 112 111 113 122 131 131 127 126 124 122 121 116 112 110 111 107 105 105 106 106 104 103 100 97 97 96 97 100 102 103 104 106 108 109 110 114 117 121 123 124 125 123 118 114 115
152 149 151 151 147 142 141 141 139 140 138 143 141 138 137 133 135 133 130 129 128 126 125 125 123 122 121 121 122 122 121 117 114 109 106 107 106 106 106 106 108 110 114 119 123 123 124 124 119 117 116 115 113 113 113 110 108 107 106 106 105 105 103 102 102 100 101 103 103 104 103 104 106 107 109 111 114 116 118 120 122 118 113 112 112
150 148 150 150 148 143 143 143 140 141 141 142 139 140 138 131 133 132 130 124 120 118 118 119 120 121 121 122 124 124 123 121 118 113 109 109 107 106 107 107 109 112 116 118 118 122 124 120 116 115 114 114 113 114 115 113 109 107 106 106 107 107 105 105 105 104 106 106 105 103 102 104 105 108 109 109 110 112 114 115 117 117 115 117 116
150 147 149 149 146 143 143 142 140 144 144 140 137 142 141 134 132 129 126 121 118 117 115 115 116 118 119 121 121 122 123 123 120 116 113 112 110 109 110 110 113 115 118 120 122 126 125 120 118 117 115 114 112 113 115 113 109 108 108 108 108 107 106 106 107 108 109 109 107 105 106 108 108 109 110 110 112 112 114 114 117 119 118 122 123
151 147 148 148 143 141 141 141 142 147 145 142 140 142 140 134 129 125 125 123 122 119 116 118 117 117 118 119 120 120 123 126 123 118 115 112 114 115 114 113 114 119 120 121 123 124 123 121 120 118 116 114 113 114 114 111 108 107 109 110 109 106 105 105 106 109 108 109 111 112 112 113 112 110 111 113 116 116 119 119 118 120 122 127 129
152 147 148 146 141 140 140 143 145 148 147 145 142 139 136 133 126 124 129 127 126 123 124 126 120 118 117 117 118 118 123 127 125 120 118 116 117 117 116 116 118 119 120 120 121 122 124 123 120 118 116 116 115 115 114 111 110 108 108 107 107 106 106 106 107 107 105 105 107 111 112 114 115 113 116 121 126 130 131 129 128 131 136 137 135
154 149 149 146 143 142 140 144 146 144 144 142 141 138 135 136 125 123 129 127 129 132 134 132 123 120 118 116 115 116 122 125 123 120 122 121 119 118 117 119 119 119 120 120 121 122 125 124 119 117 118 117 116 116 114 112 110 107 103 97 96 99 101 105 107 109 108 107 105 103 106 108 109 111 120 128 135 140 142 143 145 151 151 147 145
156 152 150 147 144 142 140 144 144 140 140 139 138 133 136 137 126 125 129 129 135 139 139 134 129 125 121 118 114 115 120 123 123 121 124 124 123 124 122 121 122 123 121 117 119 120 123 124 119 119 120 119 116 115 113 110 107 102 98 92 86 84 86 94 99 105 110 112 109 104 103 100 95 101 118 132 139 144 150 158 159 159 159 157 162
156 154 153 150 148 146 144 146 143 141 140 140 137 133 139 130 123 130 130 134 137 138 141 137 133 129 123 119 117 117 118 122 124 123 125 125 125 127 125 123 125 126 122 116 118 121 123 122 119 119 119 118 116 112 109 105 102 100 97 91 83 80 82 90 94 97 103 107 107 104 99 93 90 100 124 138 144 149 157 165 164 163 166 162 168
156 156 156 156 155 153 150 150 146 143 143 144 141 137 136 123 122 131 129 137 139 139 145 141 136 132 126 122 122 121 119 122 122 121 122 121 121 125 127 125 126 126 122 119 122 123 122 121 120 121 122 119 115 111 109 105 102 102 100 93 87 86 87 90 91 92 96 99 100 97 92 87 87 95 111 123 131 140 157 160 168 201 228 235 225
158 160 160 161 162 158 152 152 151 146 145 146 142 137 131 125 126 127 130 140 142 146 149 145 141 136 129 125 124 123 123 121 117 118 121 119 116 120 124 124 126 126 122 120 123 125 123 123 124 124 123 118 113 112 110 107 104 103 101 95 92 91 90 90 88 89 90 92 92 90 89 88 86 81 81 87 93 96 112 114 108 131 160 46 101
160 164 166 166 163 160 156 156 155 149 146 144 142 141 133 130 131 129 135 142 145 151 152 146 143 139 132 128 127 127 124 119 117 120 122 120 115 117 123 126 126 125 125 123 123 125 123 125 126 124 121 116 114 112 110 109 105 104 102 96 93 92 90 87 84 83 84 84 82 80 80 80 80 71 64 68 69 63 62 61 58 72 82 103 119
161 166 169 168 162 159 158 158 160 155 154 152 148 149 143 140 136 131 137 146 149 152 151 147 145 142 134 132 133 133 127 119 118 119 119 119 119 119 121 125 123 121 123 125 127 126 127 130 131 127 121 118 115 110 108 104 101 101 98 93 90 87 85 83 80 76 74 71 69 66 65 66 67 62 56 58 53 39 26 29 31 55 87 131 150
165 166 166 167 163 156 157 162 166 166 168 165 159 157 152 148 143 135 138 147 151 151 149 146 146 142 135 134 135 132 126 118 117 118 117 117 118 119 122 125 119 115 116 120 127 127 131 137 135 131 122 118 114 110 106 98 98 98 94 89 84 80 78 77 75 72 67 62 58 55 55 57 60 61 62 61 48 11 334 325 307 290 282 280 271
169 165 160 163 162 158 164 172 172 174 175 173 172 164 156 150 147 143 140 144 149 151 149 147 146 141 137 138 136 128 123 117 116 117 117 117 115 118 122 126 120 114 114 118 126 130 137 140 136 131 123 119 115 114 109 102 101 102 98 88 78 73 70 69 69 67 64 59 54 50 49 53 62 72 89 103 123 184 245 260 266 273 279 277 267
170 166 161 162 161 163 171 178 176 177 180 179 181 175 164 153 151 151 144 144 150 151 149 150 149 141 140 141 137 128 123 116 112 113 114 117 116 115 117 120 120 118 119 122 128 134 140 140 137 133 128 126 122 121 119 112 107 108 103 89 75 67 64 63 62 60 57 54 52 49 48 53 63 71 89 114 135 146 177 236 256 263 269 256 238
169 169 169 165 163 170 174 180 182 180 186 186 184 184 174 162 159 154 146 148 152 153 149 149 149 142 141 144 143 134 125 115 110 111 111 114 117 116 115 116 119 120 123 125 128 132 135 137 137 136 135 134 132 130 127 118 110 108 101 84 70 63 60 57 55 52 51 51 52 52 53 59 67 75 91 107 116 114 98 12 13 7 59 96 159
172 173 176 170 170 174 174 184 187 183 189 191 187 186 182 172 166 158 149 151 154 156 149 146 148 145 148 152 148 139 128 116 110 111 112 114 116 117 119 119 122 126 129 131 131 131 131 135 137 138 139 137 136 134 130 122 114 110 99 80 65 57 51 46 44 43 47 52 55 59 62 67 76 85 95 109 113 106 91 72 56 53 54 56 68
178 179 179 178 177 177 174 183 189 184 187 194 192 187 187 178 169 166 155 153 157 160 154 148 148 148 156 155 148 144 133 120 112 112 112 112 115 119 121 122 128 131 135 136 136 136 135 137 139 140 141 140 139 136 133 124 118 111 97 81 65 50 38 31 31 34 43 54 61 64 65 67 74 82 103 122 107 94 88 79 71 66 68 78 80
181 181 182 187 184 182 178 180 186 183 182 189 191 187 192 185 174 170 162 157 161 165 159 151 149 147 153 150 146 147 138 125 116 114 113 111 115 119 123 127 133 136 137 140 140 142 142 142 141 140 140 140 141 139 136 129 120 105 89 74 55 40 28 23 25 29 39 56 66 67 63 59 62 76 92 92 86 85 86 83 82 78 82 88 86
181 182 185 193 191 189 183 177 179 181 183 188 191 188 192 188 177 170 166 162 161 163 158 151 149 147 151 150 147 145 135 126 118 117 117 114 117 120 125 129 133 135 136 138 140 141 141 142 141 140 140 140 142 143 142 135 125 104 80 51 36 26 19 18 20 23 35 58 71 69 60 57 63 75 81 79 82 86 85 84 85 84 85 87 88
182 185 190 193 191 192 186 178 177 181 183 184 189 188 190 188 178 173 170 164 161 162 157 149 150 150 153 152 146 138 129 124 119 120 119 117 121 123 126 128 129 130 131 133 132 133 133 135 136 138 139 141 143 145 147 145 139 127 66 18 18 13 12 12 13 20 41 66 75 73 67 69 74 80 82 83 85 87 87 86 88 88 86 87 89
184 187 190 188 187 189 190 184 181 189 186 179 186 185 187 186 179 179 174 166 164 163 155 148 150 151 153 150 142 134 128 126 123 122 120 120 125 125 125 125 125 125 125 124 123 123 124 127 129 132 135 139 145 149 153 158 169 190 264 331 357 5 9 10 15 39 67 80 82 81 79 82 87 88 89 88 89 90 88 87 86 85 83 82 82
188 188 187 185 185 185 192 195 189 193 189 177 181 182 181 179 178 180 175 167 164 157 150 149 151 150 149 146 139 134 132 130 126 125 125 126 126 123 121 120 119 117 115 113 113 114 116 121 125 130 139 150 160 168 179 190 207 222 256 318 354 360 4 13 41 80 90 93 90 89 91 94 96 94 93 91 91 91 88 86 84 82 80 78 76
192 188 184 183 184 182 189 200 196 192 188 176 175 179 176 175 178 180 174 165 158 151 147 149 148 147 148 143 138 134 133 130 128 131 131 129 126 121 119 117 114 110 107 105 106 111 118 127 135 147 165 180 189 201 209 215 223 236 273 335 359 356 6 26 78 101 101 99 96 97 98 99 97 94 92 91 91 88 88 87 84 81 79 77 74
193 185 182 183 182 183 187 195 197 190 188 179 175 178 176 176 179 176 170 159 152 152 150 147 145 148 148 140 135 133 133 133 134 137 135 131 126 122 120 115 111 106 102 100 104 115 127 138 152 170 187 195 203 211 216 219 227 244 297 336 347 1 33 66 107 110 105 101 99 100 99 96 91 88 87 87 87 85 86 85 84 83 81 79 74
188 183 183 184 184 184 186 191 192 188 186 180 178 181 180 178 177 170 162 155 154 156 154 150 148 149 144 136 133 134 137 138 139 139 137 133 128 125 121 115 109 103 100 100 108 121 130 144 164 190 209 213 213 217 219 224 231 232 72 239 19 83 96 109 117 110 103 99 97 96 92 87 82 80 81 81 81 82 83 84 84 83 79 76 72
187 186 187 186 186 183 184 187 185 184 182 178 177 180 178 174 172 164 155 154 157 159 158 157 154 148 139 133 134 136 139 139 140 141 138 135 131 127 122 116 110 105 103 103 111 120 125 141 159 214 246 245 233 232 234 228 215 183 114 113 116 112 111 112 110 103 97 91 88 86 80 76 76 77 77 77 78 79 79 80 78 74 70 67 64
189 189 191 185 181 179 180 182 179 180 180 175 172 170 169 166 165 158 151 150 153 156 159 159 154 145 136 132 135 137 140 141 142 142 140 139 135 130 124 120 115 110 109 108 112 116 118 124 98 357 315 320 310 262 233 204 176 147 117 109 111 109 107 107 103 95 87 83 81 77 69 66 72 76 76 75 73 71 69 67 64 60 54 49 44
189 191 193 182 177 175 176 176 174 176 176 170 163 161 162 158 156 152 148 146 146 149 152 153 149 142 136 135 137 139 141 143 144 145 144 143 138 134 130 126 121 119 117 117 119 116 113 100 59 7 359 21 39 47 147 171 151 128 115 109 107 105 104 103 98 88 79 75 72 66 64 65 69 75 75 72 67 63 57 51 44 38 32 26 20
187 187 185 180 177 173 172 172 170 170 169 162 155 155 156 153 150 149 147 144 142 142 142 143 142 139 138 138 140 142 144 146 148 149 148 145 143 140 137 132 130 128 124 124 122 113 105 79 39 9 10 17 25 36 71 125 126 116 112 110 110 107 102 99 90 80 73 72 69 66 67 67 68 72 71 65 59 54 48 41 33 24 14 5 359
179 176 178 177 175 172 171 169 166 165 162 155 151 151 152 151 150 148 146 142 137 134 133 134 135 137 138 141 142 144 147 149 150 151 151 151 150 147 144 142 141 138 134 132 126 118 106 64 30 10 0 3 7 13 66 111 115 110 112 113 114 109 98 93 85 81 79 75 73 69 67 64 62 60 54 46 38 32 25 19 15 10 5 357 346
170 170 174 173 171 171 171 167 162 161 158 153 151 151 152 152 151 150 146 141 135 131 131 132 134 136 140 144 145 148 150 151 153 155 156 157 156 153 152 151 149 150 150 152 150 148 135 55 28 9 353 5 19 29 98 116 114 108 113 114 114 108 93 86 83 85 82 73 67 61 56 49 42 34 27 20 12 4 357 351 345 341 339 340 336
172 173 172 169 169 170 169 165 158 156 155 152 152 153 154 154 154 153 148 142 136 133 133 134 137 138 142 147 148 150 152 153 156 158 160 161 161 160 159 157 155 155 162 172 179 179 173 26 19 3 347 2 25 91 124 128 127 115 113 110 106 101 90 81 75 75 70 63 49 35 28 19 11 4 358 349 343 340 338 333 330 325 319 316 317
181 176 170 167 166 167 166 160 154 154 154 152 153 155 156 156 156 153 149 144 138 135 135 136 139 139 139 146 151 153 155 157 159 162 164 166 167 167 163 158 154 158 174 190 198 197 205 4 9 352 335 347 14 124 140 137 139 128 119 109 101 93 86 77 64 56 44 33 19 7 359 353 346 341 336 328 318 311 313 316 319 317 309 303 300
185 179 172 168 164 163 161 156 153 152 153 153 155 157 158 159 156 153 149 145 140 138 139 137 138 140 138 141 152 160 162 163 166 167 167 170 174 174 166 157 156 167 177 187 197 210 324 358 356 332 322 333 351 177 171 160 153 143 127 103 91 79 67 48 24 6 354 355 357 352 345 339 332 329 326 320 308 293 290 295 304 311 308 303 299
184 184 178 168 162 161 158 156 154 153 154 155 157 159 161 160 157 155 153 148 144 144 146 142 139 142 143 143 151 165 169 170 172 170 169 176 181 179 170 165 172 173 166 184 194 222 335 344 329 312 315 325 328 199 185 188 190 184 176 101 45 34 32 24 3 338 330 339 343 341 337 332 326 323 318 313 305 293 287 286 297 310 312 310 308
185 187 182 169 162 159 158 157 156 156 158 159 160 162 163 161 161 162 161 154 148 150 154 152 145 144 150 149 150 165 175 176 174 174 177 183 187 187 180 181 187 173 167 190 193 239 301 311 314 307 316 325 303 193 192 209 224 239 257 265 278 306 338 359 349 331 321 329 334 332 328 324 323 324 322 317 312 303 296 293 303 312 314 317 317
185 186 183 172 164 161 160 159 159 161 162 161 163 165 166 166 169 172 171 166 161 161 161 160 156 151 157 158 152 162 176 179 179 184 189 191 196 194 185 188 190 177 182 198 197 237 253 271 296 289 299 326 309 226 238 243 244 264 286 291 291 302 303 310 328 324 313 315 321 323 322 318 318 321 324 324 321 312 301 302 313 317 317 322 324
187 185 183 176 169 166 164 163 163 165 166 166 167 169 172 174 177 180 177 173 173 173 168 165 161 155 160 162 156 164 180 187 190 195 198 200 202 193 187 192 188 181 205 210 211 235 244 250 268 274 277 303 315 289 279 268 263 278 293 298 299 303 302 304 315 316 313 314 315 316 316 312 312 317 321 324 321 310 300 303 313 315 313 318 323
189 187 185 179 174 172 170 169 169 170 172 173 175 176 177 179 181 180 177 177 178 177 171 166 162 156 161 163 166 184 194 198 200 201 205 208 205 194 193 197 193 200 216 224 236 246 253 250 250 265 277 284 288 288 293 277 263 271 278 278 285 296 301 302 302 305 314 318 318 318 315 313 314 316 319 324 323 314 306 306 309 309 309 315 320
192 191 188 182 178 178 177 175 174 176 177 180 182 181 180 179 178 175 174 176 174 169 164 161 158 157 164 173 191 208 208 209 210 208 211 214 209 203 202 204 208 215 218 232 251 254 259 259 258 266 271 277 280 277 294 291 271 273 269 262 269 283 295 301 299 300 304 308 314 317 316 317 319 321 326 332 333 327 320 314 310 309 310 314 318
195 195 193 187 184 182 181 180 180 180 181 184 186 183 181 179 177 173 173 172 166 158 157 159 159 158 169 188 202 208 208 211 214 213 215 218 215 210 210 214 219 223 226 234 249 258 259 261 269 279 277 279 284 284 294 300 290 287 276 265 268 281 289 290 288 290 292 295 302 310 312 317 323 328 334 336 336 335 329 323 318 314 311 313 317
198 197 196 194 191 187 184 184 185 184 185 187 187 184 183 183 180 178 177 177 172 170 173 177 176 176 193 205 205 201 201 206 212 213 217 222 223 217 216 222 225 231 239 238 249 261 261 263 272 287 290 286 287 288 296 306 308 305 291 280 280 286 291 292 291 289 289 292 297 305 312 319 328 334 336 337 338 338 333 327 326 322 315 313 319
202 200 200 198 195 191 188 188 190 189 189 189 188 187 187 188 186 184 187 190 190 194 199 198 195 202 214 219 215 206 201 204 209 211 217 224 228 224 222 227 230 238 247 248 254 261 266 273 277 288 290 285 287 292 301 310 316 318 310 304 300 297 306 316 315 311 307 308 312 323 328 330 334 337 339 341 346 346 339 330 328 326 319 316 322
208 204 203 203 200 197 193 192 193 193 193 192 190 190 191 192 191 192 195 197 200 204 207 207 207 214 225 228 223 215 209 208 210 213 219 224 229 231 231 233 237 243 249 252 256 259 266 274 281 290 287 279 281 287 300 310 314 319 315 313 314 313 320 330 333 327 321 323 332 341 343 338 337 339 341 345 349 349 344 335 325 318 314 315 319
212 207 205 206 204 203 199 196 196 197 197 195 193 194 195 196 198 199 202 204 206 209 208 212 222 228 235 234 226 218 214 214 215 217 220 222 228 235 239 242 245 249 249 251 256 258 263 271 277 286 285 279 280 284 291 297 303 309 312 313 312 313 321 333 338 333 329 330 334 338 341 339 341 346 348 349 348 348 348 343 331 316 313 313 310
214 210 208 208 207 207 204 200 199 198 197 195 196 199 201 203 205 207 211 214 216 220 220 221 227 231 233 229 224 219 217 217 219 221 222 222 228 235 241 245 248 251 249 251 256 256 261 269 273 278 280 280 284 290 291 290 290 289 294 305 309 315 322 328 335 339 336 331 329 331 336 336 340 351 352 350 349 349 350 352 344 325 315 312 309
214 214 214 212 210 209 206 202 201 201 199 198 200 204 207 210 213 217 222 224 227 235 240 239 236 233 231 224 220 220 217 218 220 223 224 225 231 236 239 243 247 248 248 251 254 253 256 264 269 273 275 276 282 291 293 290 287 283 287 296 301 307 312 320 331 340 338 330 327 329 335 336 335 346 351 348 353 355 352 353 351 336 321 317 318
217 218 218 216 212 209 208 205 203 205 206 205 205 207 210 214 218 225 231 233 233 238 243 244 238 233 231 223 219 221 219 217 220 223 226 229 232 235 238 241 242 244 246 249 251 251 253 259 267 272 271 273 280 290 293 289 286 286 288 294 298 303 307 314 324 332 331 327 323 324 331 333 329 336 344 346 355 360 354 352 351 341 325 318 321
219 218 218 219 216 212 211 208 206 207 211 213 213 211 212 217 221 227 234 237 236 238 240 238 233 230 229 223 220 222 220 219 222 224 226 229 231 235 239 240 241 245 248 248 248 249 252 258 266 271 274 276 279 285 290 290 288 287 286 287 291 299 308 312 316 321 321 320 319 320 326 327 323 327 335 341 351 357 356 355 353 347 334 324 324
Height
1531 1532 1534 1535 1536 1537 1538 1539 1540 1541 1542 1543 1544 1545 1545 1546 1546 1547 1547 1547 1547 1547 1547 1548 1548 1548 1549 1549 1549 1550 1550 1550 1551 1551 1552 1552 1552 1553 1554 1555 1556 1557 1558 1557 1557 1558 1560 1560 1560 1560 1560 1561 1562 1562 1562 1561 1562 1562 1562 1563 1563 1563 1564 1564 1565 1565 1566 1566 1567 1567 1568 1568 1569 1569 1570 1571 1572 1572 1572 1573 1573 1573 1573 1574 1574
1532 1533 1534 1536 1537 1537 1539 1540 1541 1542 1543 1544 1545 1546 1546 1547 1547 1548 1548 1548 1548 1549 1549 1549 1549 1550 1550 1550 1551 1551 1551 1551 1552 1552 1552 1553 1554 1554 1555 1557 1558 1559 1559 1558 1558 1559 1561 1561 1561 1561 1561 1562 1562 1563 1563 1563 1563 1564 1564 1564 1564 1565 1565 1565 1566 1567 1567 1568 1568 1568 1569 1569 1570 1570 1571 1572 1573 1573 1573 1573 1574 1574 1574 1574 1575
1533 1534 1535 1536 1537 1538 1539 1540 1542 1543 1543 1544 1545 1546 1547 1548 1548 1548 1549 1549 1549 1550 1550 1550 1551 1551 1551 1552 1552 1552 1552 1553 1553 1553 1554 1554 1555 1555 1556 1558 1559 1560 1560 1559 1560 1562 1563 1562 1562 1562 1562 1562 1563 1564 1564 1564 1565 1565 1566 1566 1566 1566 1566 1567 1567 1568 1568 1569 1569 1569 1569 1570 1571 1571 1572 1573 1573 1574 1574 1574 1574 1574 1574 1575 1575
1534 1534 1535 1536 1538 1539 1540 1541 1542 1543 1544 1545 1546 1547 1548 1549 1549 1549 1550 1550 1550 1551 1551 1551 1552 1552 1552 1553 1553 1554 1554 1554 1554 1555 1555 1555 1555 1556 1557 1558 1559 1561 1561 1562 1562 1563 1564 1563 1563 1563 1563 1564 1564 1565 1565 1565 1566 1566 1567 1567 1567 1567 1567 1568 1568 1569 1569 1570 1570 1570 1570 1571 1571 1572 1573 1573 1574 1574 1575 1575 1575 1575 1575 1575 1575
1534 1535 1536 1537 1538 1540 1541 1542 1543 1543 1544 1545 1546 1547 1548 1549 1550 1551 1551 1551 1551 1551 1551 1552 1552 1553 1553 1554 1555 1555 1555 1555 1555 1556 1556 1556 1556 1557 1558 1559 1559 1561 1561 1562 1563 1564 1564 1564 1564 1564 1565 1565 1566 1566 1566 1566 1567 1567 1568 1568 1568 1569 1569 1569 1569 1570 1570 1570 1571 1571 1571 1572 1572 1573 1573 1574 1575 1575 1575 1575 1575 1576 1576 1576 1576
1535 1536 1537 1538 1539 1540 1541 1542 1543 1544 1545 1546 1547 1548 1549 1549 1551 1552 1552 1551 1551 1551 1551 1552 1552 1553 1554 1555 1556 1556 1556 1556 1556 1557 1557 1558 1558 1558 1559 1559 1560 1561 1561 1563 1563 1564 1565 1565 1565 1565 1566 1567 1567 1567 1567 1568 1568 1568 1569 1569 1569 1570 1570 1570 1571 1571 1571 1572 1572 1572 1572 1573 1573 1573 1574 1575 1575 1575 1576 1576 1576 1576 1576 1576 1576
1536 1537 1538 1539 1540 1541 1542 1543 1544 1545 1546 1547 1547 1548 1550 1550 1551 1553 1552 1552 1552 1551 1552 1553 1553 1554 1555 1556 1556 1557 1557 1557 1557 1559 1559 1559 1560 1560 1560 1560 1560 1562 1563 1564 1564 1565 1565 1566 1566 1567 1567 1568 1568 1568 1569 1569 1569 1570 1570 1570 1570 1571 1571 1572 1572 1572 1573 1573 1573 1573 1573 1574 1574 1574 1575 1575 1576 1576 1576 1576 1576 1577 1577 1577 1577
1537 1538 1539 1540 1541 1542 1543 1544 1545 1545 1546 1547 1548 1549 1550 1551 1552 1553 1553 1553 1552 1552 1553 1554 1554 1554 1556 1557 1557 1558 1558 1558 1558 1560 1560 1561 1562 1561 1562 1562 1562 1563 1564 1565 1565 1565 1566 1567 1567 1568 1568 1569 1569 1570 1570 1570 1570 1571 1571 1571 1571 1572 1572 1573 1573 1574 1574 1574 1574 1574 1575 1575 1575 1575 1575 1576 1576 1576 1576 1577 1577 1577 1577 1577 1577
1538 1539 1540 1541 1542 1543 1543 1544 1545 1546 1547 1548 1548 1550 1550 1551 1553 1554 1554 1554 1553 1553 1554 1554 1555 1555 1556 1557 1558 1558 1559 1559 1559 1560 1561 1562 1564 1564 1564 1565 1565 1565 1565 1566 1566 1567 1567 1567 1568 1569 1569 1570 1570 1571 1571 1571 1571 1572 1572 1573 1573 1573 1573 1573 1573 1574 1574 1575 1575 1575 1576 1576 1576 1576 1576 1576 1577 1577 1577 1577 1577 1577 1577 1577 1577
1539 1540 1541 1542 1543 1543 1544 1545 1546 1547 1548 1548 1549 1550 1551 1552 1553 1554 1555 1555 1554 1554 1555 1555 1555 1556 1557 1558 1559 1559 1559 1560 1560 1561 1561 1562 1565 1566 1566 1567 1567 1566 1566 1567 1568 1569 1569 1569 1569 1570 1571 1571 1572 1572 1572 1572 1572 1573 1573 1574 1574 1574 1574 1574 1574 1575 1575 1575 1576 1576 1576 1577 1577 1577 1577 1577 1577 1577 1577 1577 1577 1577 1577 1577 1577
1539 1541 1542 1543 1544 1544 1545 1546 1547 1548 1548 1549 1550 1550 1552 1553 1553 1554 1556 1556 1556 1556 1556 1556 1556 1557 1558 1558 1559 1560 1560 1561 1561 1561 1562 1563 1565 1567 1567 1568 1569 1569 1567 1568 1569 1570 1570 1571 1571 1571 1572 1572 1573 1573 1573 1573 1573 1573 1574 1575 1575 1576 1576 1576 1576 1576 1576 1576 1576 1577 1577 1577 1577 1577 1577 1577 1577 1577 1578 1578 1577 1577 1577 1577 1577
1540 1541 1542 1543 1544 1545 1546 1547 1548 1549 1549 1550 1550 1551 1553 1554 1554 1554 1555 1557 1557 1557 1557 1557 1557 1558 1558 1559 1560 1560 1561 1562 1562 1562 1563 1564 1565 1566 1568 1568 1570 1570 1570 1570 1570 1571 1571 1572 1572 1573 1573 1573 1573 1573 1574 1574 1574 1574 1574 1575 1576 1577 1577 1577 1577 1577 1577 1577 1577 1577 1578 1578 1578 1578 1578 1578 1578 1578 1578 1578 1578 1578 1578 1578 1578
1540 1541 1543 1544 1545 1547 1547 1548 1549 1549 1550 1550 1551 1552 1553 1554 1555 1555 1555 1556 1558 1559 1559 1558 1559 1558 1558 1559 1560 1561 1562 1563 1563 1564 1564 1565 1566 1567 1568 1569 1569 1571 1572 1572 1571 1572 1572 1573 1573 1574 1574 1574 1574 1574 1574 1575 1575 1575 1575 1576 1576 1577 1578 1578 1578 1578 1578 1578 1578 1578 1578 1578 1578 1578 1578 1578 1578 1578 1578 1578 1578 1578 1578 1578 1578
1541 1542 1543 1545 1546 1548 1548 1548 1549 1550 1550 1550 1551 1552 1554 1555 1555 1556 1555 1557 1559 1559 1559 1559 1559 1559 1559 1559 1560 1561 1562 1563 1564 1565 1566 1566 1567 1568 1568 1568 1569 1570 1571 1573 1573 1573 1573 1574 1574 1574 1574 1575 1575 1575 1575 1575 1575 1575 1576 1576 1577 1578 1578 1578 1579 1579 1579 1579 1579 1579 1579 1579 1579 1578 1578 1578 1578 1578 1578 1578 1578 1578 1578 1578 1578
1542 1543 1544 1546 1547 1548 1548 1548 1549 1550 1550 1551 1552 1553 1554 1554 1555 1556 1556 1557 1559 1560 1560 1560 1560 1560 1559 1560 1561 1562 1563 1564 1565 1566 1567 1568 1569 1569 1570 1569 1569 1570 1571 1573 1573 1574 1574 1574 1575 1575 1575 1575 1575 1576 1576 1576 1576 1577 1577 1577 1578 1578 1578 1578 1579 1579 1579 1579 1579 1579 1579 1579 1579 1579 1579 1579 1579 1579 1579 1578 1578 1578 1578 1578 1577
1543 1544 1545 1547 1548 1549 1549 1549 1550 1551 1551 1551 1553 1553 1553 1554 1555 1557 1558 1558 1559 1561 1561 1561 1562 1561 1561 1561 1561 1562 1563 1564 1565 1567 1568 1569 1570 1570 1571 1571 1571 1571 1572 1573 1574 1574 1575 1575 1575 1576 1576 1576 1576 1577 1577 1578 1578 1578 1578 1578 1578 1578 1579 1579 1579 1579 1579 1579 1579 1579 1579 1579 1579 1579 1579 1579 1579 1579 1579 1578 1578 1578 1578 1577 1577
1543 1545 1546 1547 1549 1550 1550 1549 1550 1551 1551 1552 1553 1554 1554 1554 1555 1556 1559 1560 1560 1561 1562 1562 1562 1562 1562 1561 1562 1563 1564 1564 1566 1567 1568 1569 1570 1571 1572 1573 1572 1572 1573 1573 1574 1575 1575 1575 1576 1576 1576 1577 1577 1578 1578 1578 1578 1579 1579 1579 1579 1579 1579 1579 1579 1579 1579 1579 1579 1579 1579 1579 1579 1580 1580 1579 1579 1579 1578 1578 1578 1578 1577 1577 1577
1544 1545 1546 1548 1550 1550 1551 1550 1550 1552 1552 1552 1553 1554 1554 1555 1556 1557 1559 1561 1562 1563 1563 1563 1563 1563 1563 1563 1564 1564 1564 1565 1566 1567 1568 1569 1570 1571 1572 1573 1573 1574 1574 1574 1575 1575 1576 1576 1576 1577 1577 1578 1578 1579 1579 1579 1579 1580 1580 1580 1580 1580 1580 1580 1580 1579 1579 1579 1579 1579 1579 1579 1580 1580 1579 1579 1579 1578 1578 1578 1578 1577 1577 1577 1577
1545 1546 1547 1549 1550 1551 1552 1551 1551 1552 1553 1553 1554 1554 1555 1555 1556 1557 1559 1561 1563 1564 1564 1564 1564 1565 1565 1565 1565 1565 1565 1566 1567 1568 1569 1570 1571 1572 1572 1573 1574 1574 1575 1575 1576 1576 1577 1577 1577 1578 1578 1579 1579 1580 1580 1580 1580 1581 1581 1581 1581 1581 1581 1581 1580 1580 1580 1579 1579 1579 1579 1580 1580 1579 1579 1579 1579 1578 1578 1578 1578 1577 1577 1577 1577
1545 1546 1547 1549 1550 1551 1553 1552 1552 1553 1553 1553 1554 1554 1554 1555 1556 1558 1560 1561 1564 1565 1564 1564 1564 1565 1566 1566 1566 1566 1566 1566 1567 1568 1569 1570 1571 1572 1572 1573 1574 1574 1575 1576 1577 1577 1578 1578 1578 1578 1579 1580 1580 1581 1581 1581 1581 1582 1582 1582 1582 1582 1582 1582 1581 1581 1580 1580 1580 1580 1580 1580 1580 1580 1580 1579 1579 1578 1578 1578 1578 1578 1578 1577 1577
1545 1546 1547 1549 1550 1551 1553 1553 1553 1553 1553 1553 1554 1553 1553 1555 1556 1558 1560 1562 1564 1565 1565 1565 1565 1565 1567 1567 1567 1567 1567 1567 1568 1569 1569 1570 1571 1572 1573 1573 1574 1575 1576 1576 1577 1578 1578 1579 1579 1579 1580 1581 1581 1582 1582 1582 1582 1583 1583 1582 1582 1582 1582 1582 1582 1581 1581 1581 1580 1580 1580 1580 1580 1580 1580 1579 1579 1579 1578 1578 1578 1578 1578 1577 1577
1545 1546 1548 1549 1550 1551 1552 1553 1553 1553 1553 1554 1554 1553 1553 1554 1556 1557 1559 1562 1563 1565 1566 1566 1566 1566 1567 1567 1567 1568 1568 1568 1569 1570 1570 1571 1572 1572 1573 1574 1574 1575 1576 1577 1578 1579 1580 1580 1580 1581 1581 1582 1582 1583 1583 1583 1583 1583 1583 1583 1583 1583 1583 1583 1582 1582 1582 1581 1581 1580 1581 1581 1581 1581 1580 1580 1579 1579 1579 1579 1578 1578 1578 1578 1578
1545 1546 1548 1549 1550 1551 1551 1552 1553 1554 1554 1555 1555 1554 1554 1554 1555 1556 1559 1562 1563 1565 1567 1566 1566 1567 1567 1568 1568 1568 1569 1569 1570 1570 1571 1572 1573 1573 1574 1575 1576 1577 1578 1579 1580 1580 1581 1582 1582 1582 1583 1583 1583 1584 1584 1584 1584 1584 1584 1583 1583 1583 1583 1583 1583 1582 1582 1582 1581 1581 1581 1581 1581 1581 1581 1580 1580 1579 1579 1579 1579 1579 1579 1578 1578
1545 1546 1548 1549 1550 1551 1550 1551 1552 1553 1554 1556 1556 1556 1556 1555 1556 1558 1560 1562 1563 1565 1566 1566 1566 1567 1567 1568 1569 1569 1570 1570 1571 1571 1572 1573 1574 1575 1576 1577 1578 1579 1580 1580 1581 1582 1583 1583 1583 1584 1584 1584 1584 1584 1584 1584 1584 1584 1584 1584 1584 1584 1584 1583 1583 1583 1582 1582 1582 1582 1582 1582 1582 1582 1581 1581 1580 1580 1580 1580 1580 1580 1580 1580 1579
1545 1546 1548 1549 1550 1550 1550 1550 1550 1552 1553 1555 1557 1557 1557 1558 1559 1560 1561 1562 1563 1564 1565 1566 1566 1567 1568 1569 1569 1570 1571 1571 1572 1573 1574 1575 1576 1577 1578 1579 1580 1580 1581 1582 1582 1583 1583 1584 1584 1584 1585 1585 1585 1584 1584 1584 1584 1584 1584 1584 1584 1584 1584 1584 1584 1583 1583 1583 1583 1583 1583 1583 1583 1582 1582 1581 1581 1581 1580 1581 1581 1581 1581 1581 1580
1545 1546 1548 1549 1550 1551 1551 1551 1551 1551 1552 1554 1556 1557 1559 1560 1561 1561 1561 1562 1563 1565 1565 1566 1567 1568 1569 1569 1570 1571 1572 1573 1573 1574 1575 1576 1577 1578 1580 1580 1581 1582 1582 1583 1583 1583 1584 1584 1584 1585 1585 1585 1585 1585 1584 1584 1584 1584 1585 1585 1585 1585 1585 1584 1584 1584 1584 1584 1583 1583 1584 1583 1583 1583 1583 1582 1582 1581 1581 1581 1581 1581 1581 1581 1581
1545 1546 1547 1549 1550 1551 1552 1552 1552 1552 1552 1554 1555 1557 1559 1560 1561 1561 1562 1563 1564 1565 1566 1566 1567 1568 1569 1570 1571 1572 1573 1574 1575 1576 1577 1578 1579 1580 1581 1582 1583 1583 1583 1584 1584 1584 1584 1584 1585 1585 1585 1585 1585 1585 1585 1585 1585 1585 1585 1585 1585 1585 1585 1585 1585 1585 1585 1585 1584 1584 1584 1584 1584 1584 1583 1583 1583 1582 1582 1582 1582 1582 1581 1581 1581
1545 1546 1547 1548 1550 1551 1552 1552 1553 1553 1554 1555 1556 1558 1559 1560 1561 1562 1563 1564 1564 1565 1566 1567 1568 1570 1570 1571 1572 1573 1574 1575 1576 1578 1579 1580 1581 1582 1583 1583 1584 1584 1585 1585 1585 1585 1585 1585 1585 1585 1585 1585 1585 1585 1585 1585 1585 1586 1586 1586 1586 1585 1586 1586 1586 1586 1586 1586 1586 1586 1585 1585 1585 1585 1584 1584 1584 1583 1583 1583 1583 1582 1582 1581 1581
1545 1546 1547 1548 1549 1550 1551 1552 1553 1554 1555 1556 1557 1558 1559 1560 1561 1563 1563 1564 1565 1566 1567 1568 1570 1571 1572 1573 1574 1575 1576 1577 1578 1579 1580 1581 1582 1583 1584 1584 1585 1585 1585 1586 1586 1586 1586 1586 1586 1586 1586 1586 1586 1586 1586 1586 1586 1586 1586 1586 1586 1586 1587 1587 1587 1587 1587 1587 1587 1586 1586 1586 1586 1586 1586 1585 1585 1585 1584 1584 1583 1583 1583 1582 1582
1546 1546 1547 1548 1549 1550 1551 1552 1553 1554 1555 1556 1557 1559 1560 1561 1562 1563 1564 1565 1566 1567 1568 1569 1571 1572 1573 1574 1575 1576 1577 1578 1579 1580 1581 1583 1584 1584 1585 1585 1586 1586 1586 1586 1587 1587 1587 1587 1587 1587 1587 1587 1587 1587 1586 1587 1587 1587 1587 1587 1587 1588 1588 1588 1588 1588 1588 1587 1587 1587 1587 1587 1587 1587 1587 1586 1586 1585 1585 1585 1584 1584 1583 1583 1582
1546 1546 1547 1548 1549 1550 1551 1552 1554 1555 1556 1557 1558 1559 1561 1562 1563 1564 1565 1566 1567 1568 1569 1570 1572 1573 1574 1575 1576 1577 1578 1579 1580 1582 1583 1584 1585 1585 1586 1586 1586 1587 1587 1587 1588 1588 1588 1588 1588 1588 1588 1587 1588 1587 1587 1587 1587 1587 1588 1588 1588 1588 1589 1589 1589 1589 1588 1588 1588 1588 1588 1588 1588 1588 1587 1587 1586 1586 1585 1585 1585 1584 1584 1583 1582
1546 1546 1547 1548 1549 1550 1551 1552 1553 1555 1556 1557 1558 1560 1561 1562 1563 1565 1566 1567 1568 1569 1570 1572 1573 1574 1575 1576 1577 1578 1579 1580 1582 1583 1584 1585 1586 1586 1587 1587 1587 1588 1588 1588 1588 1589 1589 1589 1589 1589 1589 1589 1588 1588 1588 1588 1588 1588 1588 1588 1589 1589 1589 1590 1589 1589 1589 1589 1589 1589 1589 1589 1589 1588 1588 1587 1587 1586 1586 1585 1585 1584 1584 1583 1582
1546 1546 1547 1548 1549 1550 1551 1552 1553 1555 1556 1558 1559 1560 1562 1563 1564 1566 1567 1568 1569 1570 1572 1573 1574 1575 1576 1577 1578 1579 1580 1582 1583 1584 1585 1586 1587 1587 1588 1588 1588 1589 1589 1589 1589 1589 1590 1590 1590 1590 1590 1589 1589 1589 1589 1589 1589 1589 1589 1589 1590 1590 1590 1590 1590 1590 1590 1590 1590 1590 1590 1589 1589 1589 1588 1588 1587 1587 1586 1586 1585 1585 1584 1583 1582
1546 1547 1547 1548 1549 1550 1551 1552 1554 1555 1557 1558 1559 1561 1562 1564 1565 1567 1568 1569 1570 1572 1573 1574 1575 1576 1577 1578 1579 1580 1581 1583 1584 1585 1586 1587 1587 1588 1588 1589 1589 1589 1590 1590 1590 1590 1590 1590 1590 1590 1590 1590 1590 1590 1590 1590 1590 1590 1590 1590 1590 1590 1590 1590 1591 1591 1591 1591 1591 1590 1590 1590 1589 1589 1588 1588 1587 1587 1586 1585 1585 1584 1583 1583 1582
1546 1547 1548 1549 1550 1550 1552 1553 1554 1556 1557 1559 1560 1562 1563 1565 1566 1568 1569 1570 1571 1573 1574 1575 1576 1577 1578 1579 1580 1581 1582 1583 1585 1586 1587 1587 1588 1589 1589 1590 1590 1590 1590 1590 1591 1591 1591 1591 1591 1591 1591 1591 1591 1591 1591 1591 1591 1591 1591 1590 1590 1591 1591 1591 1591 1591 1591 1591 1591 1591 1590 1590 1589 1589 1588 1588 1587 1586 1586 1585 1584 1584 1583 1582 1581
1546 1547 1548 1549 1550 1551 1552 1553 1555 1556 1558 1559 1561 1562 1564 1566 1567 1569 1570 1571 1572 1574 1575 1576 1577 1578 1579 1580 1581 1582 1583 1584 1585 1586 1587 1588 1589 1589 1590 1590 1591 1591 1591 1591 1591 1591 1591 1591 1591 1591 1591 1591 1592 1592 1592 1591 1591 1591 1591 1591 1591 1591 1591 1591 1591 1591 1591 1591 1591 1590 1590 1590 1589 1588 1588 1587 1586 1586 1585 1584 1583 1583 1582 1581 1580
1547 1548 1548 1549 1550 1551 1553 1554 1556 1557 1559 1560 1562 1563 1565 1566 1568 1569 1571 1572 1573 1574 1575 1576 1577 1578 1579 1580 1581 1582 1584 1585 1586 1586 1587 1588 1589 1590 1591 1591 1592 1592 1592 1592 1592 1592 1592 1592 1592 1592 1592 1592 1592 1592 1592 1592 1592 1592 1591 1591 1591 1591 1591 1591 1591 1591 1591 1591 1590 1590 1590 1589 1588 1588 1587 1586 1585 1584 1584 1583 1582 1582 1581 1580 1579
1547 1548 1549 1550 1551 1552 1554 1555 1556 1558 1560 1561 1562 1564 1565 1567 1568 1570 1571 1572 1573 1574 1576 1577 1578 1579 1580 1581 1582 1583 1584 1585 1586 1587 1587 1589 1590 1590 1591 1592 1592 1592 1592 1592 1592 1592 1593 1593 1593 1593 1593 1592 1592 1592 1592 1592 1592 1592 1592 1592 1592 1592 1592 1591 1591 1591 1591 1590 1590 1590 1589 1588 1588 1587 1586 1585 1584 1583 1583 1582 1581 1581 1580 1579 1578
1548 1549 1550 1551 1552 1553 1554 1556 1557 1559 1560 1562 1563 1564 1566 1567 1568 1570 1571 1572 1574 1575 1576 1577 1578 1579 1580 1581 1582 1583 1584 1585 1586 1587 1588 1589 1590 1591 1591 1592 1592 1592 1592 1593 1593 1593 1593 1593 1593 1593 1593 1593 1593 1593 1593 1592 1592 1592 1592 1592 1592 1592 1592 1591 1591 1591 1590 1590 1589 1589 1588 1588 1587 1586 1585 1584 1583 1582 1582 1581 1580 1579 1579 1578 1577
1548 1549 1550 1551 1552 1554 1555 1556 1558 1559 1561 1562 1563 1564 1566 1567 1568 1569 1571 1572 1574 1575 1576 1577 1578 1578 1579 1580 1581 1583 1584 1585 1586 1587 1588 1589 1590 1591 1591 1592 1592 1592 1593 1593 1593 1593 1594 1594 1594 1594 1594 1594 1593 1593 1593 1592 1592 1592 1592 1592 1592 1592 1591 1591 1591 1590 1590 1589 1589 1588 1587 1587 1586 1585 1584 1583 1582 1582 1581 1580 1579 1578 1577 1577 1576
1548 1549 1551 1552 1553 1554 1555 1557 1558 1560 1561 1562 1563 1564 1565 1566 1568 1569 1571 1572 1574 1575 1575 1576 1577 1578 1579 1580 1581 1583 1584 1585 1586 1587 1588 1589 1590 1590 1591 1592 1592 1592 1592 1593 1593 1593 1594 1594 1594 1594 1594 1594 1594 1593 1593 1592 1592 1592 1591 1591 1591 1591 1591 1591 1590 1590 1589 1589 1588 1587 1587 1586 1585 1584 1583 1582 1581 1580 1579 1579 1578 1577 1576 1575 1574
1547 1549 1551 1552 1553 1554 1556 1557 1558 1560 1561 1562 1563 1564 1565 1566 1568 1569 1571 1573 1574 1575 1576 1577 1577 1578 1579 1580 1581 1582 1584 1584 1585 1586 1587 1588 1589 1590 1591 1591 1592 1592 1592 1593 1593 1594 1594 1594 1594 1594 1594 1594 1594 1593 1593 1592 1592 1592 1591 1591 1591 1591 1591 1590 1590 1589 1589 1588 1587 1587 1586 1585 1584 1583 1583 1582 1580 1579 1578 1577 1577 1576 1575 1574 1573
1547 1549 1550 1552 1553 1554 1556 1558 1559 1560 1561 1562 1564 1565 1566 1567 1569 1571 1572 1573 1574 1575 1576 1577 1577 1578 1579 1580 1581 1582 1583 1584 1585 1586 1587 1588 1589 1590 1590 1591 1592 1592 1592 1593 1593 1594 1594 1594 1594 1594 1594 1594 1594 1593 1593 1592 1592 1592 1591 1591 1591 1591 1591 1590 1589 1589 1588 1587 1587 1586 1585 1585 1584 1583 1582 1581 1580 1579 1578 1577 1576 1574 1574 1573 1572
1547 1548 1550 1551 1553 1554 1556 1557 1559 1560 1561 1562 1564 1565 1567 1568 1570 1571 1572 1573 1574 1575 1576 1576 1577 1578 1579 1580 1581 1582 1583 1584 1585 1586 1587 1588 1589 1589 1590 1591 1591 1592 1592 1593 1593 1593 1594 1594 1594 1594 1594 1594 1593 1593 1593 1592 1592 1592 1592 1591 1591 1590 1590 1589 1588 1588 1587 1587 1586 1586 1585 1585 1584 1583 1582 1581 1580 1579 1577 1576 1575 1573 1573 1572 1572
1546 1548 1549 1551 1552 1554 1555 1557 1559 1560 1561 1562 1564 1566 1567 1568 1569 1570 1571 1572 1573 1574 1575 1576 1576 1577 1578 1580 1581 1582 1583 1584 1584 1585 1586 1587 1588 1589 1590 1590 1591 1591 1592 1592 1593 1593 1593 1593 1593 1593 1593 1593 1593 1593 1593 1592 1592 1592 1592 1591 1591 1590 1590 1589 1588 1587 1587 1587 1586 1586 1585 1584 1584 1583 1582 1581 1580 1578 1577 1576 1574 1573 1572 1572 1571
1545 1547 1548 1550 1552 1554 1555 1557 1558 1560 1561 1563 1564 1566 1567 1568 1569 1570 1570 1571 1572 1573 1574 1575 1576 1577 1578 1579 1580 1581 1582 1583 1584 1585 1586 1587 1588 1588 1589 1590 1590 1591 1591 1592 1592 1593 1593 1593 1593 1593 1593 1593 1593 1593 1592 1592 1592 1592 1592 1591 1591 1590 1589 1589 1588 1587 1586 1586 1586 1585 1585 1584 1583 1583 1582 1581 1580 1578 1577 1575 1574 1573 1572 1572 1571
1544 1546 1548 1550 1551 1553 1555 1556 1558 1559 1561 1562 1564 1565 1566 1568 1569 1570 1571 1571 1572 1573 1574 1575 1576 1577 1578 1579 1580 1581 1582 1583 1583 1584 1585 1586 1587 1588 1588 1589 1589 1590 1590 1591 1592 1592 1592 1592 1592 1592 1592 1592 1592 1592 1592 1592 1592 1592 1591 1591 1590 1590 1589 1589 1588 1587 1586 1585 1585 1585 1584 1584 1583 1582 1581 1580 1579 1578 1576 1575 1573 1573 1572 1572 1571
1543 1545 1547 1549 1550 1552 1554 1556 1557 1559 1560 1562 1563 1564 1566 1567 1568 1569 1571 1571 1572 1573 1574 1575 1576 1577 1578 1579 1579 1580 1581 1582 1583 1584 1584 1585 1586 1587 1587 1588 1588 1589 1590 1590 1591 1591 1591 1591 1592 1592 1592 1592 1592 1592 1592 1592 1591 1591 1591 1591 1590 1590 1589 1589 1588 1587 1586 1585 1584 1584 1583 1583 1582 1582 1581 1580 1578 1577 1576 1574 1573 1573 1572 1572 1571
1543 1544 1546 1548 1550 1552 1553 1555 1557 1558 1560 1561 1562 1564 1565 1567 1568 1569 1570 1571 1572 1573 1574 1575 1576 1576 1577 1578 1579 1579 1580 1581 1582 1583 1584 1584 1585 1586 1587 1587 1588 1588 1589 1589 1590 1590 1591 1591 1591 1591 1591 1591 1591 1591 1591 1591 1591 1591 1590 1590 1590 1589 1589 1588 1588 1587 1586 1585 1583 1583 1582 1581 1581 1581 1580 1579 1578 1577 1575 1574 1573 1573 1572 1572 1571
1542 1544 1545 1547 1549 1551 1553 1554 1556 1558 1559 1561 1562 1563 1564 1566 1567 1568 1569 1571 1571 1573 1573 1574 1575 1576 1576 1577 1578 1579 1579 1580 1581 1582 1583 1583 1584 1585 1586 1586 1587 1587 1588 1588 1589 1589 1589 1590 1590 1590 1590 1590 1590 1590 1590 1590 1590 1590 1590 1589 1589 1588 1588 1588 1588 1587 1586 1585 1584 1582 1582 1581 1579 1579 1579 1579 1577 1576 1575 1574 1573 1573 1572 1571 1571
1541 1543 1544 1546 1548 1550 1552 1553 1555 1557 1558 1560 1561 1562 1563 1564 1566 1567 1569 1570 1571 1572 1573 1573 1574 1575 1576 1576 1577 1578 1579 1579 1580 1581 1582 1583 1583 1584 1585 1585 1586 1586 1587 1587 1588 1588 1588 1589 1589 1589 1589 1589 1589 1589 1589 1589 1589 1589 1589 1588 1588 1588 1587 1587 1587 1586 1586 1585 1584 1582 1582 1581 1580 1579 1578 1578 1577 1576 1575 1574 1573 1572 1572 1571 1570